📊 Raw Sensor Data
Showing records 49301 to 49325 of 85,116 total
| ID | Distance (ft) | Battery V | Battery A | Int Temp (°F) | Int Humid (%) | Ext Temp (°F) | Solar V | RSSI | SNR | Time Stamp |
|---|---|---|---|---|---|---|---|---|---|---|
| 35828 | 15.2 | 4.06 | 13 | 84 | 46 | 75 | 4.50 | -81 | 8 | 03/23/2025 06:30 PM |
| 35827 | 15.3 | 4.10 | 11 | 87 | 44 | 75 | 4.50 | -82 | 7 | 03/23/2025 06:15 PM |
| 35826 | -- | 4.11 | 48 | 88 | 43 | 77 | 4.50 | -82 | 8 | 03/23/2025 06:00 PM |
| 35825 | -- | 4.05 | 0 | 89 | 43 | 79 | 5.10 | -83 | 8 | 03/23/2025 05:45 PM |
| 35824 | -- | 4.05 | 0 | 90 | 42 | 77 | 5.10 | -83 | 8 | 03/23/2025 05:30 PM |
| 35823 | -- | 4.05 | 0 | 91 | 41 | 77 | 5.10 | -84 | 8 | 03/23/2025 05:15 PM |
| 35822 | -- | 4.11 | 0 | 92 | 40 | 77 | 5.10 | -83 | 8 | 03/23/2025 05:01 PM |
| 35821 | -- | 4.05 | 0 | 91 | 40 | 77 | 5.10 | -84 | 8 | 03/23/2025 04:45 PM |
| 35820 | -- | 4.15 | 0 | 91 | 39 | 77 | 5.10 | -84 | 8 | 03/23/2025 04:30 PM |
| 35819 | -- | 4.15 | 0 | 90 | 39 | 75 | 5.10 | -82 | 8 | 03/23/2025 04:15 PM |
| 35818 | -- | 4.05 | 0 | 89 | 39 | 75 | 5.10 | -83 | 8 | 03/23/2025 04:00 PM |
| 35817 | -- | 4.12 | 0 | 89 | 38 | 75 | 5.10 | -83 | 8 | 03/23/2025 03:45 PM |
| 35816 | -- | 4.05 | 0 | 91 | 36 | 73 | 5.10 | -82 | 8 | 03/23/2025 03:30 PM |
| 35815 | 15.4 | 4.05 | 0 | 89 | 36 | 75 | 5.10 | -83 | 8 | 03/23/2025 03:15 PM |
| 35814 | -- | 4.05 | 0 | 86 | 37 | 73 | 5.10 | -83 | 8 | 03/23/2025 03:00 PM |
| 35813 | -- | 4.05 | 0 | 85 | 36 | 72 | 5.10 | -84 | 8 | 03/23/2025 02:45 PM |
| 35812 | 15.3 | 4.15 | 0 | 82 | 37 | 71 | 5.10 | -83 | 8 | 03/23/2025 02:30 PM |
| 35811 | -- | 4.05 | 0 | 81 | 37 | 69 | 5.10 | -83 | 9 | 03/23/2025 02:15 PM |
| 35810 | -- | 4.06 | 0 | 82 | 36 | 69 | 5.10 | -83 | 8 | 03/23/2025 02:00 PM |
| 35809 | -- | 4.05 | 0 | 81 | 36 | 70 | 5.10 | -83 | 8 | 03/23/2025 01:46 PM |
| 35808 | -- | 4.05 | 0 | 79 | 36 | 70 | 5.10 | -84 | 9 | 03/23/2025 01:30 PM |
| 35807 | -- | 4.05 | 0 | 77 | 37 | 68 | 5.10 | -83 | 9 | 03/23/2025 01:15 PM |
| 35806 | -- | 4.05 | 0 | 77 | 37 | 70 | 5.10 | -83 | 8 | 03/23/2025 01:00 PM |
| 35805 | -- | 4.05 | 0 | 75 | 37 | 67 | 5.10 | -84 | 8 | 03/23/2025 12:45 PM |
| 35804 | -- | 4.05 | 0 | 73 | 37 | 67 | 5.10 | -84 | 8 | 03/23/2025 12:30 PM |